Location: Finkenwalde
(53.3770°N, 14.6418°E)
Time: 03:58:16
(UTC+00:00)

Meteor 2-1 Rocket - Pass Details

Date: 05 February 2023
Orbit: 829 x 907 km, 81.3° (Epoch: 24 March)

Event Time Altitude Azimuth Distance (km) Brightness Sun altitude
Rises 16:31:44 0° 346° (NNW) 3,505 7.4 -6.3°
Reaches altitude 10° 16:34:13 10° 346° (NNW) 2,551 6.7 -6.7°
Maximum altitude 16:40:02 89° 264° (W) 875 4.3 -7.5°
Drops below altitude 10° 16:45:41 10° 169° (S) 2,480 6.7 -8.3°
Sets 16:48:04 0° 169° (S) 3,401 7.4 -8.7°
